Regional Weather Roundup
Issued by NWS Mobile, AL

Home | Current Version | Previous Version | Text Only | Print | Product List | Glossary On
Versions: 1 2 3 4 5 6 7 8 9 10 11 12 13 14 15 16 17 18 19 20 21 22 23 24 25 26 27 28 29 30 31 32 33 34 35 36 37 38 39 40 41 42 43 44 45 46 47 48 49 50
000
ASUS44 KMOB 292310
RWRMOB
REGIONAL WEATHER ROUNDUP
NATIONAL WEATHER SERVICE MOBILE AL
600 PM CDT TUE JUL 29 2014

NOTE: "FAIR" INDICATES FEW OR NO CLOUDS BELOW 12,000 FEET WITH NO
      SIGNIFICANT WEATHER AND/OR OBSTRUCTIONS TO VISIBILITY.

  * THESE STATIONS ARE PART OF THE UNIVERSITY OF SOUTH ALABAMA
    MESONET AND ARE NOT UNDER NWS OR FAA QUALITY CONTROL.

ALZ061>064-300000-
COASTAL ALABAMA

CITY           SKY/WX    TMP DP  RH WIND       PRES   REMARKS
MOBILE REG APT MOSUNNY   86  63  45 NW5       29.99F
BROOKLEY FIELD MOSUNNY   88  63  43 N8        29.99F
USA CAMPUS*      N/A     88  64  45 CALM      29.96
DOG RIVER*     NOT AVBL


CITY           SKY/WX    TMP DP  RH WIND       PRES   REMARKS
MOUNT VERNON*    N/A     86  64  48 CALM      29.97F
SARALAND*      NOT AVBL
BAY MINETTE*   NOT AVBL
LOXLEY*        NOT AVBL
ROBERTSDALE*     N/A     84  63  48 N5        29.97F
FAIRHOPE*        N/A     86  66  51 N6        29.97S
ELBERTA*         N/A     86  75  70 N2        29.97S HX  95
FOLEY*         NOT AVBL
GRAND BAY*       N/A     86  66  51 VRB2      29.97
DAUPHIN ISLND* NOT AVBL
BON SCOUR NWR* NOT AVBL
GULF SHORES      N/A     87  63  45 NW9       29.97S

$$

ALZ051>060-300000-
INTERIOR SOUTHWEST AND SOUTH CENTRAL ALABAMA

CITY           SKY/WX    TMP DP  RH WIND       PRES   REMARKS
GREENVILLE     SUNNY     85  59  41 NW8       29.99S
EVERGREEN      SUNNY     87  61  41 N7        29.99S
CASTLEBERRY*   NOT AVBL
ATMORE*          N/A     84  64  51 NW5       30.00S
DIXIE*         NOT AVBL
ANDALUSIA/OPP  SUNNY     90  61  37 NE7       29.97F
ANDALUSIA*     NOT AVBL
FLORALA APT    PTSUNNY   85  62  46 N5        29.99S
FLORALA*       NOT AVBL

$$

FLZ001>006-300000-
WESTERN FLORIDA PANHANDLE

CITY           SKY/WX    TMP DP  RH WIND       PRES   REMARKS
PENSACOLA      MOSUNNY   86  61  42 N9        29.96F
NAS PENSACOLA  MOSUNNY   88  62  41 N12       29.96F
MILTON         MOSUNNY   86  63  45 N10       29.97S
WHTNG S FIELD  MOSUNNY   88  62  41 NW9       29.97S


CITY           SKY/WX    TMP DP  RH WIND       PRES   REMARKS
WALNUT HILL*   NOT AVBL
JAY*           NOT AVBL
DUKE FIELD     MOSUNNY   87  67  52 N8        29.97S
CRESTVIEW      MOSUNNY   86  61  42 N5        29.98S
VALPARAISO     MOSUNNY   89  62  40 NW8       29.96S
DESTIN         MOSUNNY   88  65  46 N8        29.95F

$$

MSZ076-079-300000-
INTERIOR SOUTHEAST MISSISSIPPI

CITY           SKY/WX    TMP DP  RH WIND       PRES   REMARKS
LEAKESVILLE*   NOT AVBL
AGRICOLA*      NOT AVBL

$$

MARINE OBSERVATIONS

STATION/POSITION TIME  TEMP    WIND        PRES    WAVE
                       AIR SEA DIR/SP/G            HT/PER
                 (UTC) (F)     (DEG/KT/KT) (MB)    (FT/S)
PASCAGOULA       2300   88     340/ 10/ 13 1015.1F
PETIT BOIS ISLND 2300   84     260/  9/ 11 1015.7F
GRAND BAY        2200   85     340/  6     1017.0S
KATRINA CUT      2200   82     190/  7     1016.3S
CEDAR POINT      2200   83     220/  8     1015.9R
E DAUPHIN ISLAND 2200   83     230/  6/  9 1015.5S
MIDDLE BAY LIGHT 2200   87      20/ 10     1014.6F
USCG MOBILE BAY  2300   87 85   20/  7/ 10 1014.1F
STATE DOCKS      2300   89 83              1015.1S
MEAHER PARK      2200   87      10/  5     1014.9R
WEEKS BAY        2200   88                   N/A
12 S ORANGE BCH  2300   85 85  330/ 10/ 14 1014.8F   1/ 3
PENSACOLA BAY    2300   90 86  360/  5/  8 1015.0S
64 S DAUPHIN ISL 2156   83 87  340/ 12/ 14 1015.7S
67 S FORT MORGAN 2200   82                 1015.6R

$$

SELECTED LOCATIONS ACROSS THE REGION

CITY           SKY/WX    TMP DP  RH WIND       PRES   REMARKS
NEW ORLEANS    PTSUNNY   88  65  46 N6        30.01F
GULFPORT       PTSUNNY   92  62  36 N8        29.98F
PASCAGOULA AP  SUNNY     88  65  46 VRB5      29.98F
PASCAGOULA*      N/A     88  63  42 NW5       29.97F
HATTIESBURG    SUNNY     88  62  41 MISG      30.00F
LAUREL         MOSUNNY   88  63  42 N9        30.03S
MERIDIAN       SUNNY     84  61  45 N14       30.02S
JACKSON        MOSUNNY   85  62  46 N16G22    30.04S
MONTGOMERY     PTSUNNY   86  61  42 NW9G18    29.99S
TROY           MOSUNNY   86  59  39 NW9       29.99S
KINSTON*       NOT AVBL
GENEVA*        NOT AVBL
ASHFORD*       NOT AVBL
DOTHAN         MOSUNNY   84  64  50 N9        30.00F
PANAMA CITY    MOSUNNY   88  63  43 NW10G25   29.94F

$$



USA.gov is the U.S. government's official web portal to all federal, state and local government web resources and services.